[[{"header":{"parameterUnit":"m.s-1","parameterCategory":1,"la1":30.2991,"la2":30.254,"lo1":-89.0895,"lo2":-89.0444,"dy":0.0017,"dx":0.0017,"nx":28,"ny":28,"refTime":"2023-09-28T03:00:00:Z","depth":0,"parameterNumber":2,"parameterNumberName":"U-component_of_WINDS"},"data":[0,0,0,0,0,0,0,0,0,0,0,0,0,0,0,0,0,0,0,0,0,0,0,0,0,0,0,0,0,0,0,0,0,0,0,0,0,0,0,0,0,0,0,0,0,0,0,0,0,0,0,0,0,0,0,0,0,0,-1.7203,-1.7203,0,-1.7213,-1.7213,-1.7213,-1.7138,-1.7136,-1.7134,-1.7132,-1.7146,-1.7149,-1.7151,0,0,0,0,0,0,0,0,0,0,0,0,0,-1.7126,-1.7127,-1.7203,-1.7203,-1.7204,-1.7213,-1.7213,-1.7213,-1.7138,-1.7136,-1.7133,-1.7131,-1.7145,-1.7148,-1.7151,0,0,0,0,0,0,0,0,0,0,0,0,0,-1.715,-1.7128,-1.7203,-1.7167,-1.7164,-1.7213,-1.7213,-1.7213,-1.7139,-1.7136,-1.7133,-1.713,-1.7145,-1.7148,-1.7151,-1.7237,0,0,-1.7162,-1.7164,0,0,0,0,0,0,0,0,-1.7149,-1.7153,-1.7172,-1.717,-1.7166,-1.7171,-1.7191,-1.7221,-1.714,-1.7149,-1.7132,-1.7128,-1.7157,-1.716,-1.7168,-1.7237,-1.7238,-1.7163,-1.7165,-1.7166,-1.7167,0,0,0,0,0,0,0,-1.7147,-1.7152,-1.7207,-1.7173,-1.7169,-1.7152,-1.7152,-1.7196,-1.7171,-1.7148,-1.7142,-1.7144,-1.7155,-1.7165,-1.7168,-1.7238,-1.7162,-1.7166,-1.7168,-1.7169,-1.738,-1.7383,0,0,0,0,0,0,-1.7149,-1.7151,-1.7207,-1.7207,-1.7149,-1.7156,-1.7156,-1.7173,-1.717,-1.7166,-1.7147,-1.7141,-1.7161,-1.7164,-1.7169,-1.727,-1.7166,-1.7169,-1.7172,-1.7376,-1.738,-1.7384,0,0,0,0,0,0,-1.7148,-1.7155,-1.7207,-1.7178,-1.7183,-1.7161,-1.718,-1.7175,-1.7185,-1.7169,-1.7165,-1.7162,-1.7158,-1.7164,-1.722,-1.7269,-1.7171,-1.7174,-1.7372,-1.7378,-1.7382,-1.7473,0,0,0,0,0,0,-1.7146,-1.7155,-1.7186,-1.7179,-1.7185,-1.7257,-1.7183,-1.7177,-1.719,-1.7182,-1.7182,-1.7179,-1.7156,-1.7216,-1.7224,-1.7273,-1.7177,-1.7368,-1.7375,-1.7381,-1.7465,-1.748,-1.7493,0,0,0,0,0,-1.7144,-1.7212,-1.7188,-1.7195,-1.7223,-1.726,-1.7264,-1.7235,-1.7194,-1.7227,-1.7217,-1.7179,-1.7262,-1.7222,-1.7231,-1.7281,-1.7365,-1.7373,-1.738,-1.7459,-1.7478,-1.7493,0,0,0,0,0,0,-1.7227,-1.721,-1.7184,-1.7251,-1.7257,-1.7247,-1.7287,-1.7255,-1.7274,-1.7266,-1.723,-1.7231,-1.7295,-1.7293,-1.7249,-1.7365,-1.7307,-1.7317,-1.7364,-1.7381,-1.7395,-1.7395,-1.718,0,0,0,0,0,-1.7252,-1.7282,-1.7267,-1.7328,-1.7332,-1.7309,-1.7324,-1.7301,-1.7307,-1.731,-1.7304,-1.7313,-1.7341,-1.736,-1.7385,-1.7464,-1.7464,-1.7503,-1.7517,-1.7529,-1.7539,-1.7583,-1.7601,-1.741,-1.741,-1.741,0,0,-1.7307,-1.7301,-1.7323,-1.7345,-1.7347,-1.7381,-1.7312,-1.735,-1.7376,-1.7316,-1.737,-1.7366,-1.7373,-1.7442,-1.7472,-1.7443,-1.7591,-1.7539,-1.7548,-1.7552,-1.7593,-1.7611,-1.7627,-1.7415,-1.7414,-1.7413,0,0,-1.7424,-1.7421,-1.7473,-1.7477,-1.748,-1.7464,-1.7477,-1.7472,-1.7467,-1.7519,-1.7476,-1.7506,-1.7555,-1.7562,-1.7573,-1.7693,-1.766,-1.7702,-1.7776,-1.782,-1.7835,-1.7848,-1.7894,-1.791,-1.7711,-1.7712,-1.7712,0,-1.7492,-1.7539,-1.7504,-1.7546,-1.7558,-1.7503,-1.7557,-1.7562,-1.7575,-1.7586,-1.7552,-1.7613,-1.7613,-1.7685,-1.7714,-1.7723,-1.7738,-1.7703,-1.7835,-1.7848,-1.786,-1.7903,-1.792,-1.7717,-1.7716,-1.7716,-1.7715,0,-1.7624,-1.7658,-1.7699,-1.7712,-1.7728,-1.7775,-1.7749,-1.777,-1.7746,-1.7734,-1.779,-1.7789,-1.7814,-1.7828,-1.7805,-1.7897,-1.7879,-1.7841,-1.7782,-1.7884,-1.7924,-1.794,-1.7725,-1.7723,-1.7721,-1.772,0,0,-1.7795,-1.7787,-1.7803,-1.7809,-1.7809,-1.7836,-1.7881,-1.7904,-1.7924,-1.7934,-1.7974,-1.8016,-1.7981,-1.7993,-1.797,-1.8007,-1.8106,-1.7965,-1.7964,-1.7994,-1.8211,-1.8242,-1.8261,-1.8083,-1.8086,-1.8088,-1.8211,0,-1.7911,-1.7987,-1.7958,-1.8037,-1.807,-1.8019,-1.8059,-1.8065,-1.8055,-1.8082,-1.8072,-1.8104,-1.8053,-1.806,-1.8095,-1.8087,-1.815,-1.8077,-1.8123,-1.8125,-1.8125,-1.8282,-1.8314,-1.843,-1.8226,-1.8229,-1.8231,0,-1.8057,-1.8073,-1.8156,-1.8152,-1.8164,-1.82,-1.822,-1.8246,-1.8252,-1.8242,-1.8256,-1.8225,-1.8272,-1.8211,-1.8277,-1.8228,-1.8244,-1.8243,-1.8247,-1.8253,-1.8186,-1.8295,-1.8466,-1.8485,-1.8255,-1.8253,-1.8251,0,-1.8178,-1.8219,-1.8274,-1.828,-1.8276,-1.8304,-1.8303,-1.8306,-1.8322,-1.8339,-1.835,-1.8373,-1.8386,-1.8405,-1.8383,-1.834,-1.8453,-1.839,-1.8449,-1.845,-1.8477,-1.8476,-1.8657,-1.8483,-1.8483,-1.8482,-1.8482,0,-1.8312,-1.8366,-1.8328,-1.8363,-1.8422,-1.8388,-1.8448,-1.8442,-1.8445,-1.8479,-1.8435,-1.8469,-1.8435,-1.8466,-1.8448,-1.8507,-1.8513,-1.8508,-1.8504,-1.8514,-1.8515,-1.8526,-1.8519,-1.8487,-1.8486,-1.8485,-1.8484,0,-1.8458,-1.8434,-1.8492,-1.8483,-1.8482,-1.8526,-1.8519,-1.8552,-1.8539,-1.8583,-1.8591,-1.8571,-1.8605,-1.8584,-1.8618,-1.8606,-1.8684,-1.8667,-1.8682,-1.8679,-1.874,-1.8736,-1.8937,-1.8963,-1.8769,-1.8771,-1.8773,0,-1.8547,-1.8587,-1.8582,-1.8601,-1.8603,-1.8634,-1.865,-1.8618,-1.8637,-1.8647,-1.8679,-1.8709,-1.8732,-1.8789,-1.8779,-1.8806,-1.8791,-1.8859,-1.8795,-1.8805,-1.8796,-1.8795,-1.88,-1.8874,-1.8876,-1.8878,-1.8879,0,-1.8708,-1.8695,-1.8719,-1.8739,-1.8759,-1.8774,-1.8786,-1.8804,-1.8772,-1.8796,-1.8829,-1.8847,-1.8882,-1.8913,-1.8936,-1.8938,-1.8905,-1.8899,-1.8915,-1.8927,-1.8936,-1.8935,-1.8721,-1.8895,-1.8894,-1.8893,-1.8892,-1.8891,-1.883,-1.8864,-1.8866,-1.8895,-1.89,-1.8912,-1.8943,-1.8933,-1.896,-1.8985,-1.8964,-1.9006,-1.9012,-1.9039,-1.9045,-1.9078,-1.905,-1.9072,-1.9078,-1.9085,-1.9095,-1.8928,-1.9081,-1.9081,-1.908,-1.908,-1.908,0,-1.8992,-1.8991,-1.9017,-1.9034,-1.9058,-1.9021,-1.9033,-1.9055,-1.9091,-1.9099,-1.9122,-1.9162,-1.9192,-1.9184,-1.9212,-1.924,-1.9226,-1.9249,-1.9249,-1.925,-1.9117,-1.9102,-1.9261,-1.926,-1.926,-1.926,-1.926,-1.926,-1.9079,-1.9135,-1.9122,-1.9181,-1.918,-1.9219,-1.9229,-1.924,-1.9247,-1.9293,-1.9317,-1.9311,-1.9313,-1.9341,-1.9368,-1.9365,-1.9379,-1.9409,-1.9401,-1.9277,-1.9259,-1.9242,-1.9228,-1.9411,-1.9411,-1.9532,-1.9533,-1.9534]},{"header":{"parameterUnit":"m.s-1","parameterCategory":1,"la1":30.2991,"la2":30.254,"lo1":-89.0895,"lo2":-89.0444,"dy":0.0017,"dx":0.0017,"nx":28,"ny":28,"refTime":"2023-09-28T03:00:00:Z","depth":0,"parameterNumber":3,"parameterNumberName":"V-component_of_WINDS"},"data":[0,0,0,0,0,0,0,0,0,0,0,0,0,0,0,0,0,0,0,0,0,0,0,0,0,0,0,0,0,0,0,0,0,0,0,0,0,0,0,0,0,0,0,0,0,0,0,0,0,0,0,0,0,0,0,0,0,0,1.6185,1.6184,0,1.6099,1.6098,1.6097,1.6037,1.6037,1.6036,1.6036,1.5942,1.594,1.5938,0,0,0,0,0,0,0,0,0,0,0,0,0,1.6293,1.6292,1.6185,1.6184,1.6183,1.6099,1.6098,1.6097,1.6037,1.6037,1.6036,1.6036,1.5943,1.594,1.5938,0,0,0,0,0,0,0,0,0,0,0,0,0,1.6231,1.6291,1.6185,1.6143,1.6138,1.6099,1.6098,1.6096,1.6037,1.6037,1.6036,1.6036,1.5944,1.5941,1.5937,1.5931,0,0,1.5928,1.5926,0,0,0,0,0,0,0,0,1.6234,1.6227,1.615,1.6146,1.6141,1.6078,1.6102,1.6041,1.6038,1.6076,1.6036,1.6035,1.5988,1.5981,1.5966,1.5927,1.5923,1.5928,1.5926,1.5924,1.5923,0,0,0,0,0,0,0,1.6239,1.623,1.615,1.6149,1.6143,1.6127,1.6118,1.609,1.6036,1.6072,1.6068,1.6059,1.5985,1.5969,1.5963,1.5921,1.5928,1.5925,1.5923,1.5922,1.5873,1.5873,0,0,0,0,0,0,1.625,1.6234,1.6153,1.6148,1.6187,1.6126,1.6115,1.6099,1.6036,1.6026,1.6059,1.6056,1.5975,1.5967,1.596,1.5947,1.5924,1.5921,1.592,1.5872,1.5873,1.5874,0,0,0,0,0,0,1.6253,1.6244,1.6157,1.619,1.6178,1.6125,1.6107,1.6097,1.6082,1.6027,1.6016,1.6053,1.5974,1.5964,1.5939,1.5943,1.592,1.5917,1.5872,1.5872,1.5873,1.5924,0,0,0,0,0,0,1.6256,1.6245,1.6243,1.619,1.6176,1.6139,1.6107,1.6096,1.6077,1.6072,1.6018,1.6009,1.5973,1.5944,1.5936,1.5939,1.5915,1.5871,1.5872,1.5873,1.5921,1.5926,1.593,0,0,0,0,0,1.626,1.6259,1.6243,1.6233,1.6172,1.6139,1.6131,1.6091,1.6078,1.6074,1.6039,1.601,1.5945,1.5942,1.5932,1.5934,1.587,1.5872,1.5873,1.5919,1.5925,1.593,0,0,0,0,0,0,1.631,1.6251,1.6233,1.6214,1.6183,1.6129,1.6123,1.6099,1.6068,1.6065,1.6015,1.6003,1.5983,1.5957,1.5954,1.5925,1.5904,1.5904,1.5943,1.5948,1.5952,1.5958,1.5912,0,0,0,0,0,1.632,1.63,1.6248,1.6237,1.6223,1.6176,1.616,1.6133,1.6097,1.6082,1.6045,1.601,1.5982,1.5964,1.5935,1.5919,1.5905,1.5915,1.592,1.5924,1.5923,1.5912,1.5915,1.5878,1.5878,1.5878,0,0,1.6338,1.6303,1.6293,1.6246,1.6218,1.6197,1.6165,1.6143,1.6127,1.6078,1.6053,1.6025,1.5982,1.5962,1.5951,1.5939,1.5931,1.5925,1.5929,1.5926,1.5914,1.5917,1.592,1.5879,1.5879,1.5879,0,0,1.636,1.6332,1.632,1.6294,1.6253,1.6223,1.622,1.6171,1.6151,1.6126,1.6089,1.6068,1.6021,1.5992,1.5971,1.5986,1.5957,1.5978,1.6,1.599,1.5993,1.5995,1.5999,1.6001,1.5978,1.5978,1.5978,0,1.6387,1.6355,1.6316,1.6298,1.6278,1.6237,1.6223,1.6199,1.615,1.6137,1.6125,1.6065,1.6034,1.6006,1.601,1.5995,1.5989,1.5982,1.5996,1.5998,1.5999,1.6002,1.6004,1.598,1.598,1.598,1.598,0,1.6389,1.6368,1.6363,1.6319,1.6299,1.6283,1.6241,1.6226,1.6201,1.6172,1.6146,1.6108,1.6071,1.6063,1.6037,1.6031,1.6025,1.6006,1.5983,1.6006,1.6008,1.6009,1.5984,1.5983,1.5982,1.5982,0,0,1.6437,1.6375,1.6373,1.6353,1.6307,1.6288,1.6271,1.6237,1.6224,1.6192,1.6175,1.6137,1.612,1.6096,1.6068,1.606,1.6072,1.604,1.6039,1.6046,1.6062,1.6076,1.6078,1.6055,1.6055,1.6055,1.6065,0,1.645,1.6417,1.6384,1.6362,1.6342,1.6304,1.6288,1.6258,1.6231,1.6208,1.6178,1.6152,1.6131,1.6116,1.6107,1.6073,1.6075,1.6072,1.6036,1.6036,1.6046,1.6079,1.6093,1.6104,1.6066,1.6066,1.6066,0,1.646,1.6433,1.641,1.6367,1.6357,1.6344,1.631,1.629,1.6254,1.6235,1.6211,1.6182,1.616,1.6143,1.6112,1.6112,1.6096,1.6077,1.6077,1.6069,1.605,1.607,1.6106,1.6107,1.6067,1.6067,1.6067,0,1.6495,1.6453,1.6434,1.6418,1.6367,1.6359,1.6337,1.6301,1.6283,1.6254,1.6241,1.621,1.6191,1.6167,1.6129,1.6121,1.6102,1.6082,1.6084,1.6085,1.6079,1.6079,1.6111,1.6073,1.6073,1.6073,1.6073,0,1.6512,1.6499,1.6449,1.6437,1.6421,1.6383,1.6369,1.6343,1.6312,1.6294,1.626,1.6243,1.6196,1.6173,1.6144,1.6122,1.6115,1.6098,1.6089,1.6099,1.6101,1.6086,1.6083,1.6073,1.6073,1.6073,1.6073,0,1.6546,1.6513,1.6489,1.6445,1.6433,1.6424,1.6385,1.6371,1.6344,1.6321,1.6314,1.627,1.6242,1.6203,1.6163,1.6143,1.6125,1.6113,1.6137,1.6132,1.6135,1.6135,1.6155,1.6155,1.6121,1.6121,1.6122,0,1.6558,1.6548,1.6503,1.6489,1.6469,1.6447,1.643,1.6392,1.6375,1.6335,1.6326,1.6296,1.627,1.6226,1.619,1.6159,1.6145,1.6155,1.614,1.615,1.6143,1.6143,1.6141,1.6157,1.6158,1.6158,1.6159,0,1.6582,1.6566,1.6543,1.6514,1.6495,1.647,1.6443,1.6434,1.639,1.6373,1.6345,1.6325,1.6285,1.6255,1.6219,1.6195,1.6169,1.6164,1.6163,1.6171,1.6185,1.6176,1.6144,1.6163,1.6163,1.6162,1.6162,1.6162,1.6604,1.6593,1.656,1.6536,1.6512,1.6489,1.6474,1.6447,1.6423,1.6389,1.6368,1.6341,1.6307,1.6257,1.6235,1.6212,1.6201,1.6199,1.6198,1.6198,1.6201,1.6191,1.6205,1.6205,1.6205,1.6205,1.6205,0,1.6624,1.6602,1.658,1.6545,1.6526,1.6507,1.6477,1.6461,1.6438,1.641,1.6386,1.6353,1.6325,1.6288,1.6256,1.6245,1.6232,1.6238,1.6237,1.6232,1.6213,1.6216,1.6249,1.6249,1.6249,1.6249,1.6249,1.6249,1.6633,1.6613,1.6594,1.6563,1.654,1.6515,1.65,1.6477,1.6454,1.6421,1.6398,1.6375,1.6342,1.6309,1.6281,1.6271,1.626,1.6269,1.6255,1.6237,1.6233,1.6229,1.6232,1.6267,1.6267,1.6275,1.6275,1.6275]}]]